CW3609 Cape Coral FL US current weather conditions

sailwx.info

Wind from 360 at 6 knots gusting 11

Air temperature 20.6° C
Dewpoint 6.5° C

Last reported at 2020-Jan-20 20:50 UTC.
Time now 2020-Jan-20 21:25 UTC

Location: N 26°33' W 082°01'.
View on Google Maps.

See reports from other nearby stations

  
Tides and Currents Weather Stations Pressure Air Temp Water Temp Dewpoint Dewpoint Depression Visibility Wind Speed Wind Dir Waves Ship Positions
date/time (UTC)wind fromknots sea level pressurealtimeterstation pressurevisibilityair tempwater tempwave heightnotes
2020-Jan-20 20:50 360 6 gusting 11 20.6
2020-Jan-20 20:40 355 6 gusting 11 21.1
2020-Jan-20 20:36 355 6 gusting 11 20.6
2020-Jan-20 20:30 005 6 gusting 11 20.6
2020-Jan-20 20:25 313 7 gusting 10 20.6
2020-Jan-20 20:15 355 1 gusting 13 21.1
2020-Jan-20 20:05 333 3 gusting 11 20.6
2020-Jan-20 20:00 307 5 gusting 13 20.6
2020-Jan-20 19:50 312 4 gusting 12 20.0
2020-Jan-20 19:15 323 6 gusting 10 20.0
2020-Jan-20 18:50 293 3 gusting 10 20.0
2020-Jan-20 18:30 291 5 gusting 7 20.0
2020-Jan-20 18:25 342 2 gusting 7 20.6
2020-Jan-20 18:20 323 2 gusting 9 20.6
2020-Jan-20 18:05 360 6 gusting 9 20.0
2020-Jan-20 17:55 005 4 gusting 9 20.0
2020-Jan-20 17:45 355 1 gusting 10 20.0
2020-Jan-20 17:20 005 8 gusting 9 19.4
2020-Jan-20 17:10 024 5 gusting 9 20.6
2020-Jan-20 17:05 340 6 gusting 7 20.6
2020-Jan-20 16:50 340 7 gusting 9 20.0
2020-Jan-20 16:45 005 6 gusting 9 20.6
2020-Jan-20 16:30 005 19.4
2020-Jan-20 16:20 348 6 gusting 8 19.4
2020-Jan-20 16:15 011 7 gusting 8 18.9
2020-Jan-20 16:00 005 6 gusting 11 18.9
2020-Jan-20 15:40 035 6 gusting 11 18.3
2020-Jan-20 15:30 052 5 gusting 11 17.2
2020-Jan-20 15:20 027 7 gusting 9 17.8
2020-Jan-20 14:55 059 6 gusting 11 16.1
2020-Jan-20 14:45 349 6 gusting 11 15.6
2020-Jan-20 14:10 023 4 gusting 11 16.1
2020-Jan-20 13:55 046 6 gusting 13 16.1
2020-Jan-20 13:45 059 7 gusting 11 16.1
2020-Jan-20 12:35 355 2 gusting 5 17.8
2020-Jan-20 12:30 351 2 gusting 6 17.8
2020-Jan-20 12:20 028 2 gusting 6 17.8
2020-Jan-20 12:10 028 1 gusting 8 17.8
2020-Jan-20 11:40 034 6 gusting 6 17.8
2020-Jan-20 11:25 347 1 gusting 7 18.3
2020-Jan-20 11:00 024 3 gusting 6 18.3
2020-Jan-20 10:55 350 18.3
2020-Jan-20 10:50 034 3 gusting 6 18.3
2020-Jan-20 10:40 017 2 gusting 7 18.3
2020-Jan-20 10:30 005 2 gusting 7 18.3
2020-Jan-20 10:20 329 4 gusting 7 18.3
2020-Jan-20 10:05 343 4 gusting 8 18.3
2020-Jan-20 10:00 028 6 gusting 8 18.9
2020-Jan-20 09:55 338 4 gusting 8 18.9
2020-Jan-20 09:45 355 6 gusting 11 18.9
2020-Jan-20 09:40 005 3 gusting 11 18.9
2020-Jan-20 09:35 355 2 gusting 6 18.9
2020-Jan-20 09:30 334 2 gusting 6 18.9
2020-Jan-20 09:25 351 3 gusting 6 18.9
2020-Jan-20 09:10 349 1 gusting 6 19.4
2020-Jan-20 09:00 348 1 gusting 6 19.4
2020-Jan-20 08:40 322 1 gusting 6 18.9
2020-Jan-20 08:20 308 19.4
2020-Jan-20 08:00 310 4 gusting 6 19.4
2020-Jan-20 07:25 311 4 gusting 8 19.4
2020-Jan-20 07:20 298 1 gusting 8 19.4
2020-Jan-20 07:05 325 3 gusting 6 19.4
2020-Jan-20 07:00 333 0 gusting 6 19.4
2020-Jan-20 06:50 338 1 gusting 10 20.0
2020-Jan-20 06:45 317 0 gusting 9 20.0
2020-Jan-20 06:40 300 1 gusting 9 20.0
2020-Jan-20 06:25 294 3 gusting 6 20.6
2020-Jan-20 06:15 301 3 gusting 4 20.0
2020-Jan-20 06:05 305 0 gusting 4 20.6
2020-Jan-20 06:00 321 1 gusting 4 20.6
2020-Jan-20 05:30 298 1 gusting 4 20.6
2020-Jan-20 05:20 314 20.6
2020-Jan-20 05:15 306 0 gusting 2 21.1
2020-Jan-20 05:05 319 21.1
2020-Jan-20 04:25 306 0 gusting 1 21.1
2020-Jan-20 04:05 295 21.1
2020-Jan-20 04:00 295 21.1
2020-Jan-20 03:30 295 21.7
2020-Jan-20 03:10 295 0 gusting 1 21.7
2020-Jan-20 02:55 291 22.2
2020-Jan-20 02:50 291 0 gusting 1 22.2
2020-Jan-20 02:45 290 22.2
2020-Jan-20 02:05 227 0 gusting 2 22.2
2020-Jan-20 01:30 229 1 gusting 2 22.2
2020-Jan-20 01:20 215 22.2
2020-Jan-20 01:10 205 22.2
2020-Jan-20 01:05 203 1 gusting 1 22.2
2020-Jan-20 00:45 221 0 gusting 2 22.2
2020-Jan-20 00:25 204 0 gusting 2 22.2
2020-Jan-20 00:05 199 22.2
2020-Jan-20 00:00 199 1 gusting 2 22.2
2020-Jan-19 23:40 191 22.8
2020-Jan-19 23:35 183 0 gusting 4 22.8
2020-Jan-19 23:20 163 22.8
2020-Jan-19 23:15 184 1 gusting 3 22.8
2020-Jan-19 23:10 157 22.8
2020-Jan-19 22:45 160 22.8
2020-Jan-19 22:35 210 23.3
2020-Jan-19 22:30 180 2 gusting 4 23.3
2020-Jan-19 22:20 189 23.3
2020-Jan-19 21:55 161 0 gusting 6 23.3
2020-Jan-19 21:50 198 1 gusting 6 23.3
2020-Jan-19 21:30 168 3 gusting 6 23.3
2020-Jan-19 21:25 212 23.9
2020-Jan-19 21:10 223 0 gusting 6 23.9
2020-Jan-19 20:35 194 2 gusting 6 23.9
2020-Jan-19 20:25 223 2 gusting 5 23.9
2020-Jan-19 19:55 168 4 gusting 6 24.4
2020-Jan-19 19:50 199 24.4
2020-Jan-19 19:45 218 3 gusting 7 25.0
2020-Jan-19 19:35 192 3 gusting 8 24.4
2020-Jan-19 19:25 194 2 gusting 8 24.4
2020-Jan-19 19:15 173 0 gusting 9 24.4
2020-Jan-19 19:10 154 3 gusting 11 25.0
2020-Jan-19 19:05 138 2 gusting 11 24.4
2020-Jan-19 18:40 155 6 gusting 9 25.0
2020-Jan-19 18:30 156 4 gusting 10 25.0
2020-Jan-19 18:25 164 1 gusting 10 25.0
2020-Jan-19 18:20 164 4 gusting 10 25.0
2020-Jan-19 18:00 140 6 gusting 10 25.0
2020-Jan-19 17:45 199 5 gusting 9 25.0
2020-Jan-19 17:35 169 1 gusting 8 25.0
2020-Jan-19 17:25 207 1 gusting 6 25.0
2020-Jan-19 17:20 166 2 gusting 10 24.4
2020-Jan-19 17:10 156 4 gusting 8 24.4
2020-Jan-19 16:25 167 6 gusting 8 25.0
2020-Jan-19 16:20 163 3 gusting 7 25.0
2020-Jan-19 16:05 137 4 gusting 13 24.4
2020-Jan-19 15:50 163 3 gusting 10 24.4
2020-Jan-19 15:25 178 0 gusting 8 23.9
2020-Jan-19 15:20 191 6 gusting 8 23.9
2020-Jan-19 15:10 113 3 gusting 8 23.9
2020-Jan-19 15:05 158 6 gusting 10 23.3
2020-Jan-19 15:00 161 5 gusting 11 23.3
2020-Jan-19 14:25 166 1 gusting 7 22.2
2020-Jan-19 14:05 157 22.2
2020-Jan-19 13:40 155 6 gusting 6 21.1
2020-Jan-19 13:35 158 1 gusting 6 21.1
2020-Jan-19 13:30 162 2 gusting 4 20.6
2020-Jan-19 13:25 136 0 gusting 4 20.0
2020-Jan-19 13:15 150 0 gusting 4 20.0
2020-Jan-19 13:05 111 0 gusting 6 19.4
2020-Jan-19 12:55 157 0 gusting 6 19.4
2020-Jan-19 12:50 159 5 gusting 6 19.4
2020-Jan-19 12:40 146 19.4
2020-Jan-19 12:35 137 2 gusting 6 19.4
2020-Jan-19 12:25 169 4 gusting 9 18.9
2020-Jan-19 12:20 153 0 gusting 6 18.9
2020-Jan-19 12:15 145 1 gusting 6 18.9
2020-Jan-19 12:10 165 2 gusting 6 18.9
2020-Jan-19 12:05 148 18.9
2020-Jan-19 11:40 150 3 gusting 8 18.9
2020-Jan-19 11:35 148 0 gusting 8 18.9
2020-Jan-19 11:25 156 18.3
2020-Jan-19 11:15 148 1 gusting 5 18.3
2020-Jan-19 11:05 136 2 gusting 4 18.3
2020-Jan-19 10:55 157 1 gusting 5 18.3
2020-Jan-19 10:30 123 0 gusting 2 17.8
2020-Jan-19 10:25 123 0 gusting 2 17.8
2020-Jan-19 09:55 113 17.8
2020-Jan-19 09:45 113 17.8
2020-Jan-19 09:40 113 17.8
2020-Jan-19 09:35 113 17.8
2020-Jan-19 09:10 113 17.8
2020-Jan-19 09:05 114 0 gusting 1 17.8
2020-Jan-19 09:00 114 17.8
2020-Jan-19 08:55 114 18.3
2020-Jan-19 08:45 114 18.3
2020-Jan-19 08:35 115 2 gusting 2 18.3
2020-Jan-19 08:30 119 1 gusting 1 18.3
2020-Jan-19 08:25 120 18.3
2020-Jan-19 08:10 124 18.3
2020-Jan-19 08:00 129 18.3
2020-Jan-19 07:55 122 0 gusting 3 18.3
2020-Jan-19 07:30 110 18.3
2020-Jan-19 07:20 139 0 gusting 2 18.3
2020-Jan-19 07:15 140 18.3
2020-Jan-19 07:10 149 18.3
2020-Jan-19 07:05 149 18.3
2020-Jan-19 07:00 149 0 gusting 2 18.3
2020-Jan-19 06:55 149 18.3
2020-Jan-19 06:50 105 18.3
2020-Jan-19 06:45 105 18.9
2020-Jan-19 06:30 105 18.9
2020-Jan-19 06:20 105 0 gusting 6 18.9
2020-Jan-19 06:05 153 18.9
2020-Jan-19 06:00 107 18.9
2020-Jan-19 05:55 107 18.9
2020-Jan-19 05:45 105 0 gusting 2 18.9
2020-Jan-19 05:30 142 18.9
2020-Jan-19 05:25 110 18.9
2020-Jan-19 05:20 111 18.9
2020-Jan-19 05:10 111 18.9
2020-Jan-19 04:50 111 1 gusting 3 18.9
2020-Jan-19 04:45 111 0 gusting 2 19.4
2020-Jan-19 04:35 111 1 gusting 2 19.4
2020-Jan-19 04:25 111 0 gusting 4 19.4
2020-Jan-19 04:15 092 19.4
2020-Jan-19 04:10 092 0 gusting 4 19.4
2020-Jan-19 04:00 103 0 gusting 4 20.0
2020-Jan-19 03:40 096 0 gusting 2 20.0
2020-Jan-19 03:35 096 20.0
2020-Jan-19 03:25 132 20.0
2020-Jan-19 03:10 134 20.6
2020-Jan-19 02:50 150 1 gusting 6 20.6
2020-Jan-19 02:40 107 20.6
2020-Jan-19 02:15 100 0 gusting 4 20.0
2020-Jan-19 02:05 105 0 gusting 2 20.0
2020-Jan-19 01:50 108 3 gusting 4 20.0
2020-Jan-19 01:45 111 1 gusting 4 20.0
2020-Jan-19 01:35 111 20.6
2020-Jan-19 01:30 101 20.6
2020-Jan-19 01:25 114 0 gusting 1 20.6
2020-Jan-19 01:10 113 20.6
2020-Jan-19 01:00 113 20.6
2020-Jan-19 00:45 113 1 gusting 2 20.6
2020-Jan-19 00:40 144 21.1
2020-Jan-19 00:35 145 0 gusting 1 21.1
2020-Jan-19 00:00 205 22.2
2020-Jan-18 23:50 205 22.2
2020-Jan-18 23:40 205 22.8
2020-Jan-18 23:30 205 22.8
2020-Jan-18 23:15 205 23.3
2020-Jan-18 23:05 205 23.3
2020-Jan-18 22:50 205 0 gusting 1 23.9
2020-Jan-18 22:40 205 23.9
2020-Jan-18 22:30 205 23.9
2020-Jan-18 22:25 205 0 gusting 2 23.9
2020-Jan-18 22:20 212 23.9
2020-Jan-18 21:50 241 24.4
2020-Jan-18 21:45 216 25.0
2020-Jan-18 21:30 209 0 gusting 5 25.6
2020-Jan-18 21:20 192 25.6
2020-Jan-18 21:15 168 0 gusting 4 26.1
2020-Jan-18 21:05 146 0 gusting 2 26.1